| time (UTC) | temp C | wind direction | speed KPH | gust KPH | rain 1hr cm | rain 24hr cm | rain mn cm | humidity % | barometer mb |
| 20260509211838 | 23 | 360 | 6.4 | 14.5 | 0.00 | 0.00 | 0.00 | 58 | 1018.1 |
| 20260509210347 | 23 | 335 | 8.0 | 12.9 | 0.00 | 0.00 | 0.00 | 58 | 1018.1 |
| 20260509204832 | 23 | 327 | 3.2 | 11.3 | 0.00 | 0.00 | 0.00 | 58 | 1018.3 |
| 20260509203332 | 22 | 342 | 9.7 | 16.1 | 0.00 | 0.00 | 0.00 | 60 | 1018.4 |
| 20260509201818 | 22 | 342 | 3.2 | 9.7 | 0.00 | 0.00 | 0.00 | 59 | 1018.7 |
| 20260509200325 | 21 | 314 | 3.2 | 12.9 | 0.00 | 0.00 | 0.00 | 60 | 1018.8 |
| 20260509194850 | 21 | 321 | 4.8 | 12.9 | 0.00 | 0.00 | 0.00 | 61 | 1019.1 |
| 20260509193333 | 20 | 323 | 9.7 | 16.1 | 0.00 | 0.00 | 0.00 | 62 | 1019.3 |
| 20260509191821 | 20 | 330 | 6.4 | 12.9 | 0.00 | 0.00 | 0.00 | 65 | 1019.4 |
| 20260509190347 | 20 | 320 | 8.0 | 17.7 | 0.00 | 0.00 | 0.00 | 67 | 1019.6 |
| 20260509184832 | 18 | 302 | 3.2 | 14.5 | 0.00 | 0.00 | 0.00 | 72 | 1019.6 |
| 20260509183338 | 18 | 300 | 6.4 | 14.5 | 0.00 | 0.00 | 0.00 | 71 | 1019.8 |
| 20260509181826 | 17 | 310 | 6.4 | 9.7 | 0.00 | 0.00 | 0.00 | 74 | 1019.9 |
| 20260509180350 | 17 | 342 | 8.0 | 16.1 | 0.00 | 0.00 | 0.00 | 74 | 1020.0 |
| 20260509174833 | 16 | 325 | 6.4 | 11.3 | 0.00 | 0.00 | 0.00 | 77 | 1020.1 |
| 20260509173338 | 15 | 308 | 8.0 | 16.1 | 0.00 | 0.00 | 0.00 | 79 | 1020.1 |
| 20260509171820 | 15 | 327 | 8.0 | 16.1 | 0.00 | 0.00 | 0.00 | 79 | 1020.2 |
| 20260509170344 | 14 | 348 | 9.7 | 17.7 | 0.00 | 0.00 | 0.00 | 81 | 1020.3 |
| 20260509164825 | 13 | 329 | 9.7 | 16.1 | 0.00 | 0.00 | 0.00 | 82 | 1020.5 |
| 20260509163336 | 13 | 323 | 9.7 | 17.7 | 0.00 | 0.00 | 0.00 | 84 | 1020.6 |
| 20260509161824 | 13 | 336 | 4.8 | 12.9 | 0.00 | 0.00 | 0.00 | 85 | 1020.7 |
| 20260509160328 | 12 | 321 | 3.2 | 14.5 | 0.00 | 0.00 | 0.00 | 85 | 1021.0 |
| 20260509154837 | 12 | 341 | 9.7 | 14.5 | 0.00 | 0.00 | 0.00 | 87 | 1021.0 |
| 20260509153325 | 12 | 323 | 4.8 | 14.5 | 0.00 | 0.00 | 0.00 | 87 | 1021.1 |
| 20260509151834 | 11 | 326 | 8.0 | 12.9 | 0.00 | 0.00 | 0.00 | 89 | 1021.1 |
| 20260509150338 | 11 | 320 | 6.4 | 11.3 | 0.00 | 0.00 | 0.00 | 90 | 1021.5 |
| 20260509144827 | 11 | 333 | 6.4 | 12.9 | 0.00 | 0.00 | 0.00 | 91 | 1021.5 |
| 20260509143335 | 10 | 344 | 8.0 | 14.5 | 0.00 | 0.00 | 0.00 | 91 | 1021.5 |
| 20260509141823 | 10 | 340 | 6.4 | 11.3 | 0.00 | 0.00 | 0.00 | 93 | 1021.4 |
| 20260509140328 | 10 | 327 | 4.8 | 8.0 | 0.00 | 0.00 | 0.00 | 94 | 1021.3 |
| 20260509134835 | 9 | 327 | 3.2 | 8.0 | 0.00 | 0.00 | 0.00 | 94 | 1021.3 |
| 20260509133340 | 9 | 324 | 3.2 | 9.7 | 0.00 | 0.00 | 0.00 | 94 | 1021.1 |
| 20260509131828 | 8 | 315 | 4.8 | 9.7 | 0.00 | 0.00 | 0.00 | 93 | 1021.2 |
| 20260509130316 | 8 | 309 | 1.6 | 8.0 | 0.00 | 0.00 | 0.00 | 91 | 1021.2 |
| 20260509124823 | 8 | 324 | 4.8 | 6.4 | 0.00 | 0.00 | 0.00 | 91 | 1021.3 |
| 20260509123333 | 9 | 329 | 1.6 | 3.2 | 0.00 | 0.00 | 0.00 | 91 | 1021.3 |
| 20260509121819 | 9 | 327 | 1.6 | 6.4 | 0.00 | 0.00 | 0.00 | 91 | 1021.5 |
| 20260509120323 | 10 | 314 | 4.8 | 8.0 | 0.00 | 0.00 | 0.00 | 91 | 1021.5 |
| 20260509114831 | 10 | 317 | 3.2 | 9.7 | 0.00 | 0.00 | 0.00 | 91 | 1021.5 |
| 20260509113343 | 10 | 329 | 4.8 | 9.7 | 0.00 | 0.00 | 0.00 | 90 | 1021.6 |
| 20260509111827 | 10 | 313 | 6.4 | 11.3 | 0.00 | 0.00 | 0.00 | 91 | 1021.5 |
| 20260509110334 | 10 | 314 | 6.4 | 8.0 | 0.00 | 0.00 | 0.00 | 90 | 1021.6 |
| 20260509104858 | 10 | 323 | 4.8 | 8.0 | 0.00 | 0.00 | 0.00 | 89 | 1021.8 |
| 20260509103323 | 10 | 319 | 3.2 | 8.0 | 0.00 | 0.00 | 0.00 | 88 | 1022.0 |
| 20260509101829 | 10 | 317 | 4.8 | 8.0 | 0.00 | 0.00 | 0.00 | 87 | 1021.9 |
| 20260509100336 | 11 | 314 | 4.8 | 9.7 | 0.00 | 0.00 | 0.00 | 87 | 1022.0 |
| 20260509094823 | 11 | 317 | 4.8 | 9.7 | 0.00 | 0.00 | 0.00 | 86 | 1022.0 |
| 20260509093324 | 11 | 323 | 6.4 | 12.9 | 0.00 | 0.00 | 0.00 | 85 | 1022.2 |
| 20260509091831 | 11 | 327 | 4.8 | 11.3 | 0.00 | 0.00 | 0.00 | 85 | 1022.1 |
| 20260509090321 | 12 | 309 | 6.4 | 12.9 | 0.00 | 0.00 | 0.00 | 85 | 1022.2 |
| 20260509084829 | 12 | 315 | 6.4 | 12.9 | 0.00 | 0.00 | 0.00 | 84 | 1022.3 |
| 20260509083337 | 12 | 317 | 8.0 | 14.5 | 0.00 | 0.00 | 0.00 | 83 | 1022.4 |
| 20260509081821 | 12 | 319 | 8.0 | 16.1 | 0.00 | 0.00 | 0.00 | 83 | 1022.6 |
| 20260509080324 | 12 | 309 | 8.0 | 12.9 | 0.00 | 0.00 | 0.00 | 82 | 1022.5 |
| 20260509074834 | 12 | 314 | 8.0 | 22.5 | 0.00 | 0.00 | 0.00 | 82 | 1022.6 |
| 20260509073341 | 12 | 311 | 4.8 | 12.9 | 0.00 | 0.00 | 0.00 | 82 | 1022.6 |
| 20260509071831 | 12 | 304 | 0.0 | 4.8 | 0.00 | 0.00 | 0.00 | 81 | 1022.5 |
| 20260509070340 | 12 | 300 | 1.6 | 4.8 | 0.00 | 0.00 | 0.00 | 80 | 1022.6 |
| 20260509064823 | 12 | 248 | 0.0 | 3.2 | 0.00 | 0.00 | 0.00 | 81 | 1022.5 |
| 20260509063333 | 12 | 231 | 3.2 | 11.3 | 0.00 | 0.00 | 0.00 | 80 | 1022.5 |
| 20260509061825 | 12 | 227 | 4.8 | 12.9 | 0.00 | 0.00 | 0.00 | 80 | 1022.5 |
| 20260509060336 | 13 | 219 | 4.8 | 11.3 | 0.00 | 0.00 | 0.00 | 80 | 1022.5 |
| 20260509054827 | 13 | 235 | 9.7 | 19.3 | 0.00 | 0.00 | 0.00 | 79 | 1022.6 |
| 20260509053315 | 13 | 233 | 8.0 | 20.9 | 0.00 | 0.00 | 0.00 | 78 | 1022.6 |
| 20260509051852 | 13 | 240 | 6.4 | 16.1 | 0.00 | 0.00 | 0.00 | 77 | 1022.5 |
| 20260509050333 | 14 | 240 | 6.4 | 17.7 | 0.00 | 0.00 | 0.00 | 77 | 1022.4 |
| 20260509044824 | 14 | 243 | 8.0 | 14.5 | 0.00 | 0.00 | 0.00 | 76 | 1022.3 |
| 20260509043334 | 14 | 237 | 8.0 | 19.3 | 0.00 | 0.00 | 0.00 | 75 | 1022.0 |
| 20260509041821 | 15 | 248 | 6.4 | 19.3 | 0.00 | 0.00 | 0.00 | 75 | 1021.9 |
| 20260509040331 | 15 | 246 | 9.7 | 25.7 | 0.00 | 0.00 | 0.00 | 74 | 1021.9 |
| 20260509034820 | 15 | 225 | 8.0 | 17.7 | 0.00 | 0.00 | 0.00 | 73 | 1021.8 |
| 20260509033335 | 16 | 234 | 9.7 | 17.7 | 0.00 | 0.00 | 0.00 | 72 | 1021.7 |
| 20260509031845 | 16 | 235 | 6.4 | 17.7 | 0.00 | 0.00 | 0.00 | 72 | 1021.7 |
| 20260509030329 | 16 | 250 | 9.7 | 17.7 | 0.00 | 0.00 | 0.00 | 70 | 1021.7 |
| 20260509024824 | 17 | 238 | 6.4 | 11.3 | 0.00 | 0.00 | 0.00 | 68 | 1021.6 |
| 20260509023332 | 18 | 221 | 3.2 | 8.0 | 0.00 | 0.00 | 0.00 | 65 | 1021.5 |
| 20260509021839 | 19 | 246 | 1.6 | 11.3 | 0.00 | 0.00 | 0.00 | 62 | 1021.4 |
| 20260509020328 | 20 | 237 | 3.2 | 9.7 | 0.00 | 0.00 | 0.00 | 61 | 1021.4 |
| 20260509014835 | 20 | 225 | 4.8 | 11.3 | 0.00 | 0.00 | 0.00 | 59 | 1021.4 |
| 20260509013322 | 20 | 242 | 4.8 | 12.9 | 0.00 | 0.00 | 0.00 | 57 | 1021.7 |
| 20260509011828 | 21 | 245 | 4.8 | 14.5 | 0.00 | 0.00 | 0.00 | 59 | 1021.7 |
| 20260509010338 | 21 | 286 | 3.2 | 8.0 | 0.00 | 0.00 | 0.00 | 59 | 1021.9 |
| 20260509004829 | 21 | 254 | 1.6 | 11.3 | 0.00 | 0.00 | 0.00 | 56 | 1021.9 |
| 20260509003337 | 21 | 190 | 3.2 | 14.5 | 0.00 | 0.00 | 0.00 | 56 | 1022.0 |
| 20260509001824 | 21 | 277 | 3.2 | 8.0 | 0.00 | 0.00 | 0.00 | 56 | 1021.9 |
| 20260509000329 | 21 | 241 | 3.2 | 12.9 | 0.00 | 0.00 | 0.00 | 58 | 1022.0 |
| 20260508234816 | 21 | 240 | 3.2 | 12.9 | 0.00 | 0.00 | 0.00 | 57 | 1022.0 |
| 20260508233344 | 21 | 226 | 9.7 | 14.5 | 0.00 | 0.00 | 0.00 | 56 | 1022.2 |
| 20260508231827 | 20 | 293 | 3.2 | 11.3 | 0.00 | 0.00 | 0.00 | 57 | 1022.2 |
| 20260508230335 | 20 | 192 | 4.8 | 12.9 | 0.00 | 0.00 | 0.00 | 56 | 1022.2 |
| 20260508224826 | 20 | 198 | 1.6 | 11.3 | 0.00 | 0.00 | 0.00 | 57 | 1022.2 |
| 20260508223335 | 20 | 7 | 4.8 | 11.3 | 0.00 | 0.00 | 0.00 | 56 | 1022.2 |
| 20260508221824 | 20 | 256 | 4.8 | 11.3 | 0.00 | 0.00 | 0.00 | 58 | 1022.2 |
| 20260508220329 | 19 | 217 | 9.7 | 16.1 | 0.00 | 0.00 | 0.00 | 59 | 1022.4 |
| 20260508214837 | 19 | 174 | 3.2 | 12.9 | 0.00 | 0.00 | 0.00 | 61 | 1022.4 |
| 20260508213326 | 18 | 148 | 3.2 | 14.5 | 0.00 | 0.00 | 0.00 | 62 | 1022.3 |